| time (UTC) | temp F | wind direction | speed knots | gust knots | rain 1hr in | rain 24hr in | rain mn in | humidity % | barometer mb |
| 20260504235505 | 55 | 228 | 2.6 | 6.1 | 0.00 | 0.00 | 0.00 | 77 | 1010.6 |
| 20260504235006 | 55 | 239 | 3.5 | 5.2 | 0.00 | 0.00 | 0.00 | 77 | 1010.5 |
| 20260504234526 | 55 | 244 | 3.5 | 6.1 | 0.00 | 0.00 | 0.00 | 77 | 1010.4 |
| 20260504234008 | 55 | 246 | 3.5 | 6.1 | 0.00 | 0.00 | 0.00 | 77 | 1010.4 |
| 20260504233507 | 55 | 241 | 3.5 | 7.0 | 0.00 | 0.00 | 0.00 | 76 | 1010.4 |
| 20260504233022 | 55 | 251 | 3.5 | 7.0 | 0.00 | 0.00 | 0.00 | 76 | 1010.3 |
| 20260504232507 | 56 | 243 | 3.5 | 7.0 | 0.00 | 0.00 | 0.00 | 75 | 1010.4 |
| 20260504232010 | 56 | 252 | 3.5 | 7.0 | 0.00 | 0.00 | 0.00 | 75 | 1010.3 |
| 20260504231538 | 56 | 225 | 3.5 | 7.8 | 0.00 | 0.00 | 0.00 | 74 | 1010.3 |
| 20260504231007 | 56 | 238 | 3.5 | 7.8 | 0.00 | 0.00 | 0.00 | 74 | 1010.3 |
| 20260504230507 | 56 | 243 | 4.3 | 7.0 | 0.00 | 0.00 | 0.00 | 73 | 1010.3 |
| 20260504230025 | 56 | 240 | 3.5 | 7.8 | 0.00 | 0.00 | 0.00 | 73 | 1010.4 |
| 20260504225509 | 57 | 236 | 4.3 | 7.8 | 0.00 | 0.00 | 0.00 | 72 | 1010.3 |
| 20260504225006 | 57 | 231 | 4.3 | 7.8 | 0.00 | 0.00 | 0.00 | 71 | 1010.4 |
| 20260504224512 | 57 | 245 | 4.3 | 7.8 | 0.00 | 0.00 | 0.00 | 71 | 1010.3 |
| 20260504224002 | 57 | 246 | 5.2 | 7.8 | 0.00 | 0.00 | 0.00 | 70 | 1010.4 |
| 20260504223503 | 57 | 240 | 4.3 | 7.8 | 0.00 | 0.00 | 0.00 | 70 | 1010.4 |
| 20260504223003 | 57 | 245 | 5.2 | 7.8 | 0.00 | 0.00 | 0.00 | 70 | 1010.4 |
| 20260504222505 | 57 | 233 | 4.3 | 7.8 | 0.00 | 0.00 | 0.00 | 70 | 1010.4 |
| 20260504222002 | 58 | 246 | 4.3 | 7.8 | 0.00 | 0.00 | 0.00 | 69 | 1010.4 |
| 20260504221504 | 58 | 235 | 4.3 | 8.7 | 0.00 | 0.00 | 0.00 | 69 | 1010.4 |
| 20260504221004 | 58 | 239 | 5.2 | 8.7 | 0.00 | 0.00 | 0.00 | 68 | 1010.5 |
| 20260504220502 | 58 | 216 | 4.3 | 8.7 | 0.00 | 0.00 | 0.00 | 68 | 1010.6 |
| 20260504220006 | 58 | 230 | 4.3 | 7.8 | 0.00 | 0.00 | 0.00 | 67 | 1010.5 |
| 20260504215503 | 58 | 240 | 4.3 | 7.8 | 0.00 | 0.00 | 0.00 | 67 | 1010.5 |
| 20260504215009 | 58 | 228 | 4.3 | 7.8 | 0.00 | 0.00 | 0.00 | 66 | 1010.4 |
| 20260504214516 | 58 | 245 | 5.2 | 9.6 | 0.00 | 0.00 | 0.00 | 65 | 1010.4 |
| 20260504214004 | 59 | 223 | 5.2 | 9.6 | 0.00 | 0.00 | 0.00 | 66 | 1010.3 |
| 20260504213509 | 59 | 236 | 4.3 | 7.8 | 0.00 | 0.00 | 0.00 | 66 | 1010.4 |
| 20260504213016 | 59 | 234 | 4.3 | 7.8 | 0.00 | 0.00 | 0.00 | 66 | 1010.3 |
| 20260504212502 | 59 | 238 | 5.2 | 8.7 | 0.00 | 0.00 | 0.00 | 66 | 1010.2 |
| 20260504212004 | 59 | 240 | 4.3 | 8.7 | 0.00 | 0.00 | 0.00 | 65 | 1010.2 |
| 20260504211502 | 59 | 221 | 4.3 | 7.8 | 0.00 | 0.00 | 0.00 | 63 | 1010.3 |
| 20260504211004 | 60 | 227 | 4.3 | 7.8 | 0.00 | 0.00 | 0.00 | 62 | 1010.3 |
| 20260504210503 | 60 | 207 | 3.5 | 7.8 | 0.00 | 0.00 | 0.00 | 62 | 1010.3 |
| 20260504210010 | 60 | 238 | 4.3 | 7.8 | 0.00 | 0.00 | 0.00 | 63 | 1010.4 |
| 20260504205504 | 60 | 243 | 4.3 | 7.0 | 0.00 | 0.00 | 0.00 | 63 | 1010.4 |
| 20260504205002 | 60 | 227 | 3.5 | 7.0 | 0.00 | 0.00 | 0.00 | 62 | 1010.4 |
| 20260504204515 | 61 | 230 | 4.3 | 7.0 | 0.00 | 0.00 | 0.00 | 62 | 1010.4 |
| 20260504204005 | 61 | 242 | 4.3 | 7.0 | 0.00 | 0.00 | 0.00 | 60 | 1010.3 |
| 20260504203503 | 61 | 223 | 4.3 | 7.8 | 0.00 | 0.00 | 0.00 | 60 | 1010.3 |
| 20260504203016 | 61 | 232 | 4.3 | 7.8 | 0.00 | 0.00 | 0.00 | 59 | 1010.3 |
| 20260504202507 | 62 | 246 | 4.3 | 7.0 | 0.00 | 0.00 | 0.00 | 57 | 1010.3 |
| 20260504202007 | 62 | 227 | 4.3 | 7.8 | 0.00 | 0.00 | 0.00 | 58 | 1010.3 |
| 20260504201519 | 62 | 227 | 4.3 | 7.8 | 0.00 | 0.00 | 0.00 | 57 | 1010.3 |
| 20260504201007 | 63 | 229 | 4.3 | 7.8 | 0.00 | 0.00 | 0.00 | 56 | 1010.3 |
| 20260504200503 | 63 | 227 | 4.3 | 7.8 | 0.00 | 0.00 | 0.00 | 56 | 1010.3 |
| 20260504200008 | 63 | 248 | 4.3 | 7.8 | 0.00 | 0.00 | 0.00 | 56 | 1010.4 |
| 20260504195504 | 63 | 229 | 3.5 | 7.0 | 0.00 | 0.00 | 0.00 | 56 | 1010.4 |
| 20260504195007 | 63 | 216 | 4.3 | 7.0 | 0.00 | 0.00 | 0.00 | 56 | 1010.5 |
| 20260504194509 | 63 | 234 | 4.3 | 6.1 | 0.00 | 0.00 | 0.00 | 57 | 1010.5 |
| 20260504194003 | 63 | 235 | 3.5 | 7.0 | 0.00 | 0.00 | 0.00 | 56 | 1010.5 |
| 20260504193503 | 63 | 255 | 4.3 | 7.0 | 0.00 | 0.00 | 0.00 | 57 | 1010.5 |
| 20260504193020 | 63 | 248 | 4.3 | 7.8 | 0.00 | 0.00 | 0.00 | 56 | 1010.6 |
| 20260504192506 | 64 | 227 | 4.3 | 7.8 | 0.00 | 0.00 | 0.00 | 55 | 1010.5 |
| 20260504192010 | 64 | 216 | 4.3 | 7.0 | 0.00 | 0.00 | 0.00 | 57 | 1010.6 |
| 20260504191518 | 64 | 226 | 4.3 | 7.0 | 0.00 | 0.00 | 0.00 | 56 | 1010.5 |
| 20260504191008 | 64 | 244 | 4.3 | 6.1 | 0.00 | 0.00 | 0.00 | 55 | 1010.6 |
| 20260504190507 | 64 | 234 | 3.5 | 7.0 | 0.00 | 0.00 | 0.00 | 56 | 1010.6 |
| 20260504190020 | 64 | 247 | 4.3 | 7.0 | 0.00 | 0.00 | 0.00 | 55 | 1010.7 |
| 20260504185503 | 64 | 250 | 4.3 | 7.8 | 0.00 | 0.00 | 0.00 | 55 | 1010.8 |
| 20260504185002 | 64 | 222 | 4.3 | 7.8 | 0.00 | 0.00 | 0.00 | 54 | 1010.8 |
| 20260504184506 | 64 | 241 | 3.5 | 7.0 | 0.00 | 0.00 | 0.00 | 55 | 1010.8 |
| 20260504184004 | 64 | 234 | 4.3 | 7.0 | 0.00 | 0.00 | 0.00 | 55 | 1010.9 |
| 20260504183503 | 64 | 264 | 4.3 | 7.0 | 0.00 | 0.00 | 0.00 | 54 | 1010.9 |
| 20260504183008 | 64 | 232 | 3.5 | 7.0 | 0.00 | 0.00 | 0.00 | 54 | 1011.0 |
| 20260504182502 | 65 | 226 | 3.5 | 6.1 | 0.00 | 0.00 | 0.00 | 54 | 1011.0 |
| 20260504182010 | 65 | 247 | 3.5 | 6.1 | 0.00 | 0.00 | 0.00 | 53 | 1011.1 |
| 20260504181514 | 65 | 217 | 4.3 | 6.1 | 0.00 | 0.00 | 0.00 | 53 | 1011.1 |
| 20260504181007 | 65 | 254 | 4.3 | 6.1 | 0.00 | 0.00 | 0.00 | 50 | 1011.1 |
| 20260504180509 | 64 | 221 | 4.3 | 7.0 | 0.00 | 0.00 | 0.00 | 52 | 1011.2 |
| 20260504180020 | 64 | 232 | 4.3 | 7.8 | 0.00 | 0.00 | 0.00 | 52 | 1011.2 |
| 20260504175507 | 64 | 218 | 4.3 | 7.8 | 0.00 | 0.00 | 0.00 | 52 | 1011.2 |
| 20260504175008 | 65 | 244 | 3.5 | 7.0 | 0.00 | 0.00 | 0.00 | 51 | 1011.2 |
| 20260504174523 | 65 | 242 | 4.3 | 7.8 | 0.00 | 0.00 | 0.00 | 51 | 1011.2 |
| 20260504174005 | 65 | 236 | 4.3 | 7.8 | 0.00 | 0.00 | 0.00 | 50 | 1011.2 |
| 20260504173503 | 65 | 255 | 4.3 | 7.0 | 0.00 | 0.00 | 0.00 | 48 | 1011.3 |
| 20260504173008 | 65 | 250 | 4.3 | 7.0 | 0.00 | 0.00 | 0.00 | 50 | 1011.3 |
| 20260504172503 | 66 | 244 | 4.3 | 7.0 | 0.00 | 0.00 | 0.00 | 48 | 1011.3 |
| 20260504172006 | 66 | 216 | 4.3 | 7.0 | 0.00 | 0.00 | 0.00 | 49 | 1011.4 |
| 20260504171532 | 66 | 221 | 3.5 | 6.1 | 0.00 | 0.00 | 0.00 | 48 | 1011.4 |
| 20260504171007 | 66 | 235 | 3.5 | 6.1 | 0.00 | 0.00 | 0.00 | 47 | 1011.5 |
| 20260504170506 | 66 | 249 | 3.5 | 6.1 | 0.00 | 0.00 | 0.00 | 47 | 1011.7 |
| 20260504151004 | 67 | 193 | 0.9 | 4.3 | 0.00 | 0.00 | 0.00 | 44 | 1012.7 |
| 20260504150503 | 67 | 268 | 2.6 | 4.3 | 0.00 | 0.00 | 0.00 | 38 | 1012.7 |
| 20260504141010 | 64 | 263 | 1.7 | 3.5 | 0.00 | 0.00 | 0.00 | 49 | 1012.9 |
| 20260504140508 | 63 | 236 | 0.9 | 3.5 | 0.00 | 0.00 | 0.00 | 47 | 1012.9 |
| 20260504130510 | 61 | 290 | 1.7 | 4.3 | 0.00 | 0.00 | 0.00 | 47 | 1013.5 |
| 20260504110509 | 51 | 254 | 0.9 | 2.6 | 0.00 | 0.00 | 0.00 | 63 | 1013.2 |
| 20260504100508 | 47 | 256 | 0.0 | 0.0 | 0.00 | 0.00 | 0.00 | 73 | 1013.1 |
| 20260504082003 | 45 | 250 | 0.0 | 0.0 | 0.00 | 0.00 | 0.00 | 75 | 1012.5 |
| 20260504081524 | 45 | 212 | 0.0 | 0.0 | 0.00 | 0.00 | 0.00 | 75 | 1012.4 |
| 20260504081007 | 45 | 212 | 0.0 | 0.0 | 0.00 | 0.00 | 0.00 | 76 | 1012.4 |
| 20260504080507 | 45 | 234 | 0.0 | 0.0 | 0.00 | 0.00 | 0.00 | 75 | 1012.4 |
| 20260504050512 | 43 | 234 | 0.0 | 0.0 | 0.00 | 0.00 | 0.00 | 72 | 1012.1 |
| 20260504045503 | 43 | 234 | 0.0 | 0.0 | 0.00 | 0.00 | 0.00 | 72 | 1012.1 |
| 20260504045006 | 43 | 234 | 0.0 | 0.0 | 0.00 | 0.00 | 0.00 | 72 | 1012.2 |
| 20260504044524 | 43 | 234 | 0.0 | 0.0 | 0.00 | 0.00 | 0.00 | 72 | 1012.2 |
| 20260504044006 | 43 | 234 | 0.0 | 0.0 | 0.00 | 0.00 | 0.00 | 71 | 1012.2 |
| 20260504043503 | 43 | 234 | 0.0 | 0.0 | 0.00 | 0.00 | 0.00 | 71 | 1012.1 |
| 20260504043004 | 43 | 234 | 0.0 | 0.0 | 0.00 | 0.00 | 0.00 | 71 | 1012.1 |
| 20260504042503 | 43 | 234 | 0.0 | 0.0 | 0.00 | 0.00 | 0.00 | 72 | 1012.1 |
| 20260504042003 | 43 | 234 | 0.0 | 0.0 | 0.00 | 0.00 | 0.00 | 73 | 1012.0 |
| 20260504041505 | 44 | 234 | 0.0 | 0.0 | 0.00 | 0.00 | 0.00 | 74 | 1012.0 |
| 20260504041003 | 44 | 234 | 0.0 | 0.0 | 0.00 | 0.00 | 0.00 | 74 | 1012.0 |
| 20260504040504 | 44 | 234 | 0.0 | 0.0 | 0.00 | 0.00 | 0.00 | 75 | 1012.0 |
| 20260504040009 | 44 | 234 | 0.0 | 0.0 | 0.00 | 0.00 | 0.00 | 76 | 1012.0 |
| 20260504035504 | 45 | 234 | 0.0 | 0.0 | 0.00 | 0.00 | 0.00 | 76 | 1012.0 |
| 20260504035004 | 45 | 234 | 0.0 | 0.0 | 0.00 | 0.00 | 0.00 | 76 | 1012.0 |
| 20260504034512 | 45 | 234 | 0.0 | 0.0 | 0.00 | 0.00 | 0.00 | 77 | 1011.9 |
| 20260504034006 | 46 | 234 | 0.0 | 0.0 | 0.00 | 0.00 | 0.00 | 76 | 1011.9 |
| 20260504033508 | 46 | 234 | 0.0 | 0.0 | 0.00 | 0.00 | 0.00 | 76 | 1011.8 |
| 20260504033021 | 46 | 234 | 0.0 | 0.0 | 0.00 | 0.00 | 0.00 | 76 | 1011.8 |
| 20260504032507 | 46 | 234 | 0.0 | 0.0 | 0.00 | 0.00 | 0.00 | 76 | 1011.8 |
| 20260504032005 | 46 | 234 | 0.0 | 0.0 | 0.00 | 0.00 | 0.00 | 76 | 1011.8 |
| 20260504031504 | 47 | 234 | 0.0 | 0.0 | 0.00 | 0.00 | 0.00 | 76 | 1011.8 |
| 20260504031003 | 47 | 234 | 0.0 | 0.0 | 0.00 | 0.00 | 0.00 | 75 | 1011.8 |
| 20260504030502 | 47 | 234 | 0.0 | 0.0 | 0.00 | 0.00 | 0.00 | 74 | 1011.7 |
| 20260504030004 | 48 | 234 | 0.0 | 0.0 | 0.00 | 0.00 | 0.00 | 74 | 1011.6 |
| 20260504025504 | 48 | 237 | 0.0 | 0.9 | 0.00 | 0.00 | 0.00 | 73 | 1011.7 |
| 20260504025004 | 48 | 237 | 0.0 | 1.7 | 0.00 | 0.00 | 0.00 | 73 | 1011.7 |
| 20260504024509 | 48 | 237 | 0.9 | 1.7 | 0.00 | 0.00 | 0.00 | 73 | 1011.6 |
| 20260504024004 | 48 | 237 | 0.9 | 1.7 | 0.00 | 0.00 | 0.00 | 73 | 1011.6 |
| 20260504023505 | 48 | 237 | 0.9 | 1.7 | 0.00 | 0.00 | 0.00 | 73 | 1011.6 |
| 20260504023016 | 48 | 237 | 0.9 | 1.7 | 0.00 | 0.00 | 0.00 | 73 | 1011.6 |
| 20260504022506 | 47 | 237 | 0.9 | 2.6 | 0.00 | 0.00 | 0.00 | 73 | 1011.7 |
| 20260504022005 | 47 | 225 | 1.7 | 2.6 | 0.00 | 0.00 | 0.00 | 74 | 1011.6 |
| 20260504021519 | 47 | 224 | 1.7 | 1.7 | 0.00 | 0.00 | 0.00 | 73 | 1011.5 |
| 20260504021006 | 47 | 275 | 0.0 | 0.0 | 0.00 | 0.00 | 0.00 | 73 | 1011.5 |
| 20260504020503 | 46 | 275 | 0.0 | 0.0 | 0.00 | 0.00 | 0.00 | 73 | 1011.5 |
| 20260504020007 | 46 | 275 | 0.0 | 0.0 | 0.00 | 0.00 | 0.00 | 73 | 1011.5 |
| 20260504015503 | 45 | 286 | 0.0 | 0.0 | 0.00 | 0.00 | 0.00 | 73 | 1011.5 |
| 20260504015004 | 45 | 292 | 0.0 | 0.0 | 0.00 | 0.00 | 0.00 | 73 | 1011.5 |
| 20260504014508 | 45 | 292 | 0.0 | 0.0 | 0.00 | 0.00 | 0.00 | 72 | 1011.4 |
| 20260504014002 | 45 | 292 | 0.0 | 0.0 | 0.00 | 0.00 | 0.00 | 71 | 1011.4 |
| 20260504013505 | 45 | 292 | 0.0 | 0.0 | 0.00 | 0.00 | 0.00 | 69 | 1011.3 |
| 20260504013012 | 45 | 292 | 0.0 | 0.0 | 0.00 | 0.00 | 0.00 | 69 | 1011.3 |
| 20260504012508 | 45 | 292 | 0.0 | 0.0 | 0.00 | 0.00 | 0.00 | 67 | 1011.3 |
| 20260504012011 | 45 | 292 | 0.0 | 0.0 | 0.00 | 0.00 | 0.00 | 65 | 1011.2 |
| 20260504011518 | 46 | 292 | 0.0 | 0.0 | 0.00 | 0.00 | 0.00 | 65 | 1011.1 |
| 20260504011005 | 46 | 292 | 0.0 | 0.0 | 0.00 | 0.00 | 0.00 | 63 | 1011.0 |
| 20260504010505 | 46 | 292 | 0.0 | 0.0 | 0.00 | 0.00 | 0.00 | 59 | 1010.9 |
| 20260504010022 | 46 | 292 | 0.0 | 0.0 | 0.00 | 0.00 | 0.00 | 57 | 1010.8 |
| 20260504005507 | 46 | 292 | 0.0 | 0.0 | 0.00 | 0.00 | 0.00 | 56 | 1010.8 |
| 20260504005003 | 47 | 292 | 0.0 | 0.0 | 0.00 | 0.00 | 0.00 | 55 | 1010.8 |
| 20260504004503 | 47 | 292 | 0.0 | 0.0 | 0.00 | 0.00 | 0.00 | 54 | 1010.8 |
| 20260504004006 | 47 | 292 | 0.0 | 0.0 | 0.00 | 0.00 | 0.00 | 53 | 1010.7 |
| 20260504003506 | 47 | 292 | 0.0 | 0.0 | 0.00 | 0.00 | 0.00 | 52 | 1010.6 |
| 20260504003008 | 48 | 292 | 0.0 | 0.0 | 0.00 | 0.00 | 0.00 | 53 | 1010.6 |
| 20260504002503 | 48 | 292 | 0.0 | 0.0 | 0.00 | 0.00 | 0.00 | 54 | 1010.5 |
| 20260504002006 | 48 | 292 | 0.0 | 0.0 | 0.00 | 0.00 | 0.00 | 55 | 1010.4 |
| 20260504001514 | 49 | 292 | 0.0 | 0.0 | 0.00 | 0.00 | 0.00 | 56 | 1010.3 |
| 20260504001006 | 49 | 292 | 0.0 | 0.0 | 0.00 | 0.00 | 0.00 | 56 | 1010.3 |
| 20260504000507 | 49 | 292 | 0.0 | 0.0 | 0.00 | 0.00 | 0.00 | 56 | 1010.3 |
| 20260504000018 | 50 | 292 | 0.0 | 0.0 | 0.00 | 0.00 | 0.00 | 57 | 1010.2 |